owner,sensor,date,latitude,longitude,vertical_datum,direction_of_sea_water_velocity,sea_water_speed,upward_sea_water_velocity,qcFlag 
TABS,ioos:station:wmo:42044:1,2006-10-01T00:00:00Z,26.1914,-97.0507,2.0,0.72022555,22.28175936,-99999.0,'11111222,11111222,99999999' 
TABS,ioos:station:wmo:42044:1,2006-10-01T00:30:00Z,26.1914,-97.0507,2.0,5.166739344,22.32068547,-99999.0,'11111222,11111222,99999999' 
TABS,ioos:station:wmo:42044:1,2006-10-01T01:00:00Z,26.1914,-97.0507,2.0,6.273026648,17.84685126,-99999.0,'11111222,11111222,99999999' 
TABS,ioos:station:wmo:42044:1,2006-10-01T01:30:00Z,26.1914,-97.0507,2.0,359.8735438,13.57003316,-99999.0,'11111222,11144222,99999999' 
TABS,ioos:station:wmo:42044:1,2006-10-01T02:00:00Z,26.1914,-97.0507,2.0,359.0026259,12.06182822,-99999.0,'11111222,11144222,99999999' 
TABS,ioos:station:wmo:42044:1,2006-10-01T02:30:00Z,26.1914,-97.0507,2.0,0.041549301,13.86000361,-99999.0,'11111222,11111222,99999999' 
TABS,ioos:station:wmo:42044:1,2006-10-01T03:00:00Z,26.1914,-97.0507,2.0,354.7135573,12.37263109,-99999.0,'11111222,11111222,99999999' 
TABS,ioos:station:wmo:42044:1,2006-10-01T03:30:00Z,26.1914,-97.0507,2.0,351.4981236,12.85122951,-99999.0,'11111222,11111222,99999999' 
TABS,ioos:station:wmo:42044:1,2006-10-01T04:00:00Z,26.1914,-97.0507,2.0,358.972325,18.95304989,-99999.0,'11111222,11111222,99999999' 
TABS,ioos:station:wmo:42044:1,2006-10-01T04:30:00Z,26.1914,-97.0507,2.0,357.7665211,17.70345164,-99999.0,'11111222,11111222,99999999' 
TABS,ioos:station:wmo:42044:1,2006-10-01T05:00:00Z,26.1914,-97.0507,2.0,359.7122951,19.90025125,-99999.0,'11111222,11144222,99999999' 
TABS,ioos:station:wmo:42044:1,2006-10-01T05:30:00Z,26.1914,-97.0507,2.0,0.177139321,19.43009264,-99999.0,'11111222,11111222,99999999' 
TABS,ioos:station:wmo:42044:1,2006-10-01T06:00:00Z,26.1914,-97.0507,2.0,359.2987807,20.42153031,-99999.0,'11111222,11144222,99999999' 
TABS,ioos:station:wmo:42044:1,2006-10-01T06:30:00Z,26.1914,-97.0507,2.0,359.0773739,22.97297978,-99999.0,'11111222,11144222,99999999' 
TABS,ioos:station:wmo:42044:1,2006-10-01T07:00:00Z,26.1914,-97.0507,2.0,349.4681636,22.10236413,-99999.0,'11111222,11111222,99999999' 
TABS,ioos:station:wmo:42044:1,2006-10-01T07:30:00Z,26.1914,-97.0507,2.0,348.4158085,24.15197921,-99999.0,'11111222,11111222,99999999' 
TABS,ioos:station:wmo:42044:1,2006-10-01T08:00:00Z,26.1914,-97.0507,2.0,354.5647917,22.16968426,-99999.0,'11111222,11111222,99999999' 
TABS,ioos:station:wmo:42044:1,2006-10-01T08:30:00Z,26.1914,-97.0507,2.0,351.5349159,18.61278324,-99999.0,'11111222,11111222,99999999' 
TABS,ioos:station:wmo:42044:1,2006-10-01T09:00:00Z,26.1914,-97.0507,2.0,0.583140226,20.64106829,-99999.0,'11111222,11111222,99999999' 
TABS,ioos:station:wmo:42044:1,2006-10-01T09:30:00Z,26.1914,-97.0507,2.0,352.9473542,20.68652943,-99999.0,'11111222,11111222,99999999' 
TABS,ioos:station:wmo:42044:1,2006-10-01T10:00:00Z,26.1914,-97.0507,2.0,353.3652936,21.89665271,-99999.0,'11111222,11111222,99999999' 
TABS,ioos:station:wmo:42044:1,2006-10-01T10:30:00Z,26.1914,-97.0507,2.0,354.324329,19.71666554,-99999.0,'11111222,11111222,99999999' 
TABS,ioos:station:wmo:42044:1,2006-10-01T11:00:00Z,26.1914,-97.0507,2.0,347.388134,23.1280652,-99999.0,'11111222,11111222,99999999' 
TABS,ioos:station:wmo:42044:1,2006-10-01T11:30:00Z,26.1914,-97.0507,2.0,2.592384422,15.03538493,-99999.0,'11111222,11111222,99999999' 
TABS,ioos:station:wmo:42044:1,2006-10-01T12:00:00Z,26.1914,-97.0507,2.0,358.7780887,15.00341295,-99999.0,'11111222,11111222,99999999' 
TABS,ioos:station:wmo:42044:1,2006-10-01T12:30:00Z,26.1914,-97.0507,2.0,349.5403258,13.2196823,-99999.0,'11111222,11111222,99999999' 
TABS,ioos:station:wmo:42044:1,2006-10-01T13:00:00Z,26.1914,-97.0507,2.0,352.2573485,17.3683534,-99999.0,'11111222,11111222,99999999' 
TABS,ioos:station:wmo:42044:1,2006-10-01T13:30:00Z,26.1914,-97.0507,2.0,354.4265731,19.15054046,-99999.0,'11111222,11111222,99999999' 
TABS,ioos:station:wmo:42044:1,2006-10-01T14:00:00Z,26.1914,-97.0507,2.0,343.619827,17.72963903,-99999.0,'11111222,11111222,99999999' 
TABS,ioos:station:wmo:42044:1,2006-10-01T14:30:00Z,26.1914,-97.0507,2.0,355.2949934,17.92039341,-99999.0,'11111222,11111222,99999999' 
TABS,ioos:station:wmo:42044:1,2006-10-01T15:00:00Z,26.1914,-97.0507,2.0,356.8189301,21.80360062,-99999.0,'11111222,11111222,99999999' 
TABS,ioos:station:wmo:42044:1,2006-10-01T15:30:00Z,26.1914,-97.0507,2.0,11.20721083,9.827395382,-99999.0,'11133222,11111222,99999999' 
TABS,ioos:station:wmo:42044:1,2006-10-01T16:00:00Z,26.1914,-97.0507,2.0,350.7387003,9.382307818,-99999.0,'11133222,11111222,99999999' 
TABS,ioos:station:wmo:42044:1,2006-10-01T16:30:00Z,26.1914,-97.0507,2.0,352.9515674,17.68364781,-99999.0,'11111222,11111222,99999999' 
TABS,ioos:station:wmo:42044:1,2006-10-01T17:00:00Z,26.1914,-97.0507,2.0,348.0578996,17.59072767,-99999.0,'11111222,11111222,99999999' 
TABS,ioos:station:wmo:42044:1,2006-10-01T17:30:00Z,26.1914,-97.0507,2.0,350.3512142,23.20832825,-99999.0,'11111222,11111222,99999999' 
TABS,ioos:station:wmo:42044:1,2006-10-01T18:00:00Z,26.1914,-97.0507,2.0,356.1892913,24.22356291,-99999.0,'11111222,11111222,99999999' 
TABS,ioos:station:wmo:42044:1,2006-10-01T18:30:00Z,26.1914,-97.0507,2.0,354.0330271,25.10603513,-99999.0,'11111222,11111222,99999999' 
TABS,ioos:station:wmo:42044:1,2006-10-01T19:00:00Z,26.1914,-97.0507,2.0,359.5445887,25.15079522,-99999.0,'11111222,11144222,99999999' 
TABS,ioos:station:wmo:42044:1,2006-10-01T19:30:00Z,26.1914,-97.0507,2.0,353.8785722,23.16207676,-99999.0,'11111222,11111222,99999999' 
TABS,ioos:station:wmo:42044:1,2006-10-01T20:00:00Z,26.1914,-97.0507,2.0,0.956981993,19.76275537,-99999.0,'11111222,11111222,99999999' 
TABS,ioos:station:wmo:42044:1,2006-10-01T20:30:00Z,26.1914,-97.0507,2.0,359.1674124,23.39247101,-99999.0,'11111222,11144222,99999999' 
TABS,ioos:station:wmo:42044:1,2006-10-01T21:00:00Z,26.1914,-97.0507,2.0,0.000210459,19.7,-99999.0,'11111222,11111222,99999999' 
TABS,ioos:station:wmo:42044:1,2006-10-01T21:30:00Z,26.1914,-97.0507,2.0,355.1766614,24.61718505,-99999.0,'11111222,11111222,99999999' 
TABS,ioos:station:wmo:42044:1,2006-10-01T22:00:00Z,26.1914,-97.0507,2.0,2.71604502,23.42631213,-99999.0,'11111222,11111222,99999999' 
TABS,ioos:station:wmo:42044:1,2006-10-01T22:30:00Z,26.1914,-97.0507,2.0,4.967724128,22.4041514,-99999.0,'11111222,11111222,99999999' 
TABS,ioos:station:wmo:42044:1,2006-10-01T23:00:00Z,26.1914,-97.0507,2.0,353.620084,23.75713998,-99999.0,'11111222,11111222,99999999' 
TABS,ioos:station:wmo:42044:1,2006-10-01T23:30:00Z,26.1914,-97.0507,2.0,355.5229886,21.26489125,-99999.0,'11111222,11111222,99999999' 
TABS,ioos:station:wmo:42044:1,2006-10-02T00:00:00Z,26.1914,-97.0507,2.0,356.038009,20.83981046,-99999.0,'11111222,11111222,99999999' 
TABS,ioos:station:wmo:42044:1,2006-10-02T00:30:00Z,26.1914,-97.0507,2.0,355.3647579,17.0758543,-99999.0,'11111222,11111222,99999999' 
TABS,ioos:station:wmo:42044:1,2006-10-02T01:00:00Z,26.1914,-97.0507,2.0,354.7562139,16.74006571,-99999.0,'11111222,11111222,99999999' 
TABS,ioos:station:wmo:42044:1,2006-10-02T01:30:00Z,26.1914,-97.0507,2.0,347.5384837,12.97570422,-99999.0,'11111222,11111222,99999999' 
TABS,ioos:station:wmo:42044:1,2006-10-02T02:00:00Z,26.1914,-97.0507,2.0,353.1488627,13.24458002,-99999.0,'11111222,11111222,99999999' 
TABS,ioos:station:wmo:42044:1,2006-10-02T02:30:00Z,26.1914,-97.0507,2.0,341.9546236,11.16942255,-99999.0,'11111222,11111222,99999999' 
TABS,ioos:station:wmo:42044:1,2006-10-02T03:00:00Z,26.1914,-97.0507,2.0,342.7666101,14.48008978,-99999.0,'11111222,11111222,99999999' 
TABS,ioos:station:wmo:42044:1,2006-10-02T03:30:00Z,26.1914,-97.0507,2.0,352.3626277,12.33946919,-99999.0,'11111222,11111222,99999999' 
TABS,ioos:station:wmo:42044:1,2006-10-02T04:00:00Z,26.1914,-97.0507,2.0,353.2306068,13.99758908,-99999.0,'11111222,11111222,99999999' 
TABS,ioos:station:wmo:42044:1,2006-10-02T04:30:00Z,26.1914,-97.0507,2.0,351.172802,16.61682581,-99999.0,'11111222,11111222,99999999' 
TABS,ioos:station:wmo:42044:1,2006-10-02T05:00:00Z,26.1914,-97.0507,2.0,345.4870518,18.35573207,-99999.0,'11111222,11111222,99999999' 
TABS,ioos:station:wmo:42044:1,2006-10-02T05:30:00Z,26.1914,-97.0507,2.0,345.4618829,15.77512282,-99999.0,'11111222,11111222,99999999' 
TABS,ioos:station:wmo:42044:1,2006-10-02T06:00:00Z,26.1914,-97.0507,2.0,343.9790286,17.6453535,-99999.0,'11111222,11111222,99999999' 
TABS,ioos:station:wmo:42044:1,2006-10-02T06:30:00Z,26.1914,-97.0507,2.0,345.5785916,18.02808087,-99999.0,'11111222,11111222,99999999' 
TABS,ioos:station:wmo:42044:1,2006-10-02T07:00:00Z,26.1914,-97.0507,2.0,347.2357258,16.61050571,-99999.0,'11111222,11111222,99999999' 
TABS,ioos:station:wmo:42044:1,2006-10-02T07:30:00Z,26.1914,-97.0507,2.0,347.4748269,18.30567672,-99999.0,'11111222,11111222,99999999' 
TABS,ioos:station:wmo:42044:1,2006-10-02T08:00:00Z,26.1914,-97.0507,2.0,345.7102087,18.06908133,-99999.0,'11111222,11111222,99999999' 
TABS,ioos:station:wmo:42044:1,2006-10-02T08:30:00Z,26.1914,-97.0507,2.0,344.6881385,18.51733512,-99999.0,'11111222,11111222,99999999' 
TABS,ioos:station:wmo:42044:1,2006-10-02T09:00:00Z,26.1914,-97.0507,2.0,355.1461953,17.37230555,-99999.0,'11111222,11111222,99999999' 
TABS,ioos:station:wmo:42044:1,2006-10-02T09:30:00Z,26.1914,-97.0507,2.0,0.675919208,16.11112038,-99999.0,'11111222,11111222,99999999' 
TABS,ioos:station:wmo:42044:1,2006-10-02T10:00:00Z,26.1914,-97.0507,2.0,345.4680451,18.21268239,-99999.0,'11111222,11111222,99999999' 
TABS,ioos:station:wmo:42044:1,2006-10-02T10:30:00Z,26.1914,-97.0507,2.0,340.9528792,17.15949883,-99999.0,'11111222,11111222,99999999' 
TABS,ioos:station:wmo:42044:1,2006-10-02T11:00:00Z,26.1914,-97.0507,2.0,355.0860828,15.17578334,-99999.0,'11111222,11111222,99999999' 
TABS,ioos:station:wmo:42044:1,2006-10-02T11:30:00Z,26.1914,-97.0507,2.0,332.3467511,16.00866328,-99999.0,'11111222,11111222,99999999' 
TABS,ioos:station:wmo:42044:1,2006-10-02T12:00:00Z,26.1914,-97.0507,2.0,338.4518733,11.35352368,-99999.0,'11111222,11111222,99999999' 
TABS,ioos:station:wmo:42044:1,2006-10-02T12:30:00Z,26.1914,-97.0507,2.0,5.492522172,16.71674609,-99999.0,'11111222,11111222,99999999' 
TABS,ioos:station:wmo:42044:1,2006-10-02T13:00:00Z,26.1914,-97.0507,2.0,349.3908334,17.16340584,-99999.0,'11111222,11111222,99999999' 
TABS,ioos:station:wmo:42044:1,2006-10-02T13:30:00Z,26.1914,-97.0507,2.0,352.368794,15.43672569,-99999.0,'11111222,11111222,99999999' 
TABS,ioos:station:wmo:42044:1,2006-10-02T14:00:00Z,26.1914,-97.0507,2.0,354.8736259,13.76506447,-99999.0,'11111222,11111222,99999999' 
TABS,ioos:station:wmo:42044:1,2006-10-02T14:30:00Z,26.1914,-97.0507,2.0,348.5865349,15.15980211,-99999.0,'11111222,11111222,99999999' 
TABS,ioos:station:wmo:42044:1,2006-10-02T15:00:00Z,26.1914,-97.0507,2.0,352.4234145,16.9883254,-99999.0,'11111222,11111222,99999999' 
TABS,ioos:station:wmo:42044:1,2006-10-02T15:30:00Z,26.1914,-97.0507,2.0,345.3140113,14.75196597,-99999.0,'11111222,11111222,99999999' 
TABS,ioos:station:wmo:42044:1,2006-10-02T16:00:00Z,26.1914,-97.0507,2.0,350.5152504,16.62731488,-99999.0,'11111222,11111222,99999999' 
TABS,ioos:station:wmo:42044:1,2006-10-02T16:30:00Z,26.1914,-97.0507,2.0,346.582214,16.63406144,-99999.0,'11111222,11111222,99999999' 
TABS,ioos:station:wmo:42044:1,2006-10-02T17:00:00Z,26.1914,-97.0507,2.0,348.8259993,17.38966647,-99999.0,'11111222,11111222,99999999' 
TABS,ioos:station:wmo:42044:1,2006-10-02T17:30:00Z,26.1914,-97.0507,2.0,346.0945136,18.10048066,-99999.0,'11111222,11111222,99999999' 
TABS,ioos:station:wmo:42044:1,2006-10-02T18:00:00Z,26.1914,-97.0507,2.0,355.2199594,20.03970559,-99999.0,'11111222,11111222,99999999' 
TABS,ioos:station:wmo:42044:1,2006-10-02T18:30:00Z,26.1914,-97.0507,2.0,351.4904266,16.21855727,-99999.0,'11111222,11111222,99999999' 
TABS,ioos:station:wmo:42044:1,2006-10-02T19:00:00Z,26.1914,-97.0507,2.0,359.6540174,16.55030211,-99999.0,'11111222,11144222,99999999' 
TABS,ioos:station:wmo:42044:1,2006-10-02T19:30:00Z,26.1914,-97.0507,2.0,353.4182812,13.87142747,-99999.0,'11111222,11111222,99999999' 
TABS,ioos:station:wmo:42044:1,2006-10-02T20:00:00Z,26.1914,-97.0507,2.0,344.2587119,14.67020109,-99999.0,'11111222,11111222,99999999' 
TABS,ioos:station:wmo:42044:1,2006-10-02T20:30:00Z,26.1914,-97.0507,2.0,354.2728971,13.62802994,-99999.0,'11111222,11111222,99999999' 
TABS,ioos:station:wmo:42044:1,2006-10-02T21:00:00Z,26.1914,-97.0507,2.0,351.2779451,16.41989647,-99999.0,'11111222,11111222,99999999' 
TABS,ioos:station:wmo:42044:1,2006-10-02T21:30:00Z,26.1914,-97.0507,2.0,355.617796,21.59313317,-99999.0,'11111222,11111222,99999999' 
TABS,ioos:station:wmo:42044:1,2006-10-02T22:00:00Z,26.1914,-97.0507,2.0,356.4582314,21.85174135,-99999.0,'11111222,11111222,99999999' 
TABS,ioos:station:wmo:42044:1,2006-10-02T22:30:00Z,26.1914,-97.0507,2.0,1.308380737,18.83490908,-99999.0,'11111222,11111222,99999999' 
TABS,ioos:station:wmo:42044:1,2006-10-02T23:00:00Z,26.1914,-97.0507,2.0,359.5435598,18.82059776,-99999.0,'11111222,11144222,99999999' 
TABS,ioos:station:wmo:42044:1,2006-10-02T23:30:00Z,26.1914,-97.0507,2.0,2.85510858,11.44420377,-99999.0,'11111222,11111222,99999999' 
TABS,ioos:station:wmo:42044:1,2006-10-03T00:00:00Z,26.1914,-97.0507,2.0,357.158344,15.32885188,-99999.0,'11111222,11111222,99999999' 
TABS,ioos:station:wmo:42044:1,2006-10-03T00:30:00Z,26.1914,-97.0507,2.0,353.3609744,13.75222527,-99999.0,'11111222,11111222,99999999' 
TABS,ioos:station:wmo:42044:1,2006-10-03T01:00:00Z,26.1914,-97.0507,2.0,4.153393234,9.665381524,-99999.0,'11133222,11111222,99999999' 
TABS,ioos:station:wmo:42044:1,2006-10-03T01:30:00Z,26.1914,-97.0507,2.0,356.2673509,8.447922822,-99999.0,'11133222,11111222,99999999' 
TABS,ioos:station:wmo:42044:1,2006-10-03T02:00:00Z,26.1914,-97.0507,2.0,352.5241809,8.300560222,-99999.0,'11133222,11111222,99999999' 
TABS,ioos:station:wmo:42044:1,2006-10-03T02:30:00Z,26.1914,-97.0507,2.0,348.1358478,8.511838814,-99999.0,'11133222,11111222,99999999' 
TABS,ioos:station:wmo:42044:1,2006-10-03T03:00:00Z,26.1914,-97.0507,2.0,352.0804745,5.007763972,-99999.0,'11133222,11111222,99999999' 
TABS,ioos:station:wmo:42044:1,2006-10-03T03:30:00Z,26.1914,-97.0507,2.0,340.7358202,6.334705992,-99999.0,'11133222,11111222,99999999' 
TABS,ioos:station:wmo:42044:1,2006-10-03T04:00:00Z,26.1914,-97.0507,2.0,342.5186065,5.892138831,-99999.0,'11133222,11111222,99999999' 
TABS,ioos:station:wmo:42044:1,2006-10-03T04:30:00Z,26.1914,-97.0507,2.0,338.489535,6.954379915,-99999.0,'11133222,11111222,99999999' 
TABS,ioos:station:wmo:42044:1,2006-10-03T05:00:00Z,26.1914,-97.0507,2.0,347.6194825,7.55571307,-99999.0,'11133222,11111222,99999999' 
TABS,ioos:station:wmo:42044:1,2006-10-03T05:30:00Z,26.1914,-97.0507,2.0,9.819488136,8.443695873,-99999.0,'11133222,11111222,99999999' 
TABS,ioos:station:wmo:42044:1,2006-10-03T06:00:00Z,26.1914,-97.0507,2.0,349.3108106,7.062556194,-99999.0,'11133222,11111222,99999999' 
TABS,ioos:station:wmo:42044:1,2006-10-03T06:30:00Z,26.1914,-97.0507,2.0,337.8793171,4.328625648,-99999.0,'11133222,11111222,99999999' 
TABS,ioos:station:wmo:42044:1,2006-10-03T07:00:00Z,26.1914,-97.0507,2.0,346.8773313,8.368542286,-99999.0,'11133222,11111222,99999999' 
TABS,ioos:station:wmo:42044:1,2006-10-03T07:30:00Z,26.1914,-97.0507,2.0,345.3100513,7.650071895,-99999.0,'11133222,11111222,99999999' 
TABS,ioos:station:wmo:42044:1,2006-10-03T08:00:00Z,26.1914,-97.0507,2.0,340.8212473,9.01008879,-99999.0,'11133222,11111222,99999999' 
TABS,ioos:station:wmo:42044:1,2006-10-03T08:30:00Z,26.1914,-97.0507,2.0,343.7038427,10.76240215,-99999.0,'11111222,11111222,99999999' 
TABS,ioos:station:wmo:42044:1,2006-10-03T09:00:00Z,26.1914,-97.0507,2.0,343.511085,10.71048552,-99999.0,'11111222,11111222,99999999' 
TABS,ioos:station:wmo:42044:1,2006-10-03T09:30:00Z,26.1914,-97.0507,2.0,356.1861445,11.12463932,-99999.0,'11111222,11111222,99999999' 
TABS,ioos:station:wmo:42044:1,2006-10-03T10:00:00Z,26.1914,-97.0507,2.0,351.7407918,8.144476656,-99999.0,'11133222,11111222,99999999' 
TABS,ioos:station:wmo:42044:1,2006-10-03T10:30:00Z,26.1914,-97.0507,2.0,353.1227735,9.186098192,-99999.0,'11133222,11111222,99999999' 
TABS,ioos:station:wmo:42044:1,2006-10-03T11:00:00Z,26.1914,-97.0507,2.0,340.0482755,9.436381722,-99999.0,'11133222,11111222,99999999' 
TABS,ioos:station:wmo:42044:1,2006-10-03T11:30:00Z,26.1914,-97.0507,2.0,349.6600095,5.794100448,-99999.0,'11133222,11111222,99999999' 
TABS,ioos:station:wmo:42044:1,2006-10-03T12:00:00Z,26.1914,-97.0507,2.0,348.0615447,5.897567295,-99999.0,'11133222,11111222,99999999' 
TABS,ioos:station:wmo:42044:1,2006-10-03T12:30:00Z,26.1914,-97.0507,2.0,340.5919836,8.004879762,-99999.0,'11133222,11111222,99999999' 
TABS,ioos:station:wmo:42044:1,2006-10-03T13:00:00Z,26.1914,-97.0507,2.0,349.7204436,8.181326298,-99999.0,'11133222,11111222,99999999' 
TABS,ioos:station:wmo:42044:1,2006-10-03T13:30:00Z,26.1914,-97.0507,2.0,344.2471542,7.366688537,-99999.0,'11133222,11111222,99999999' 
TABS,ioos:station:wmo:42044:1,2006-10-03T14:00:00Z,26.1914,-97.0507,2.0,346.8662189,5.853110284,-99999.0,'11133222,11111222,99999999' 
TABS,ioos:station:wmo:42044:1,2006-10-03T14:30:00Z,26.1914,-97.0507,2.0,339.5613023,6.872670514,-99999.0,'11133222,11111222,99999999' 
TABS,ioos:station:wmo:42044:1,2006-10-03T15:00:00Z,26.1914,-97.0507,2.0,349.2287815,6.260303507,-99999.0,'11133222,11111222,99999999' 
TABS,ioos:station:wmo:42044:1,2006-10-03T15:30:00Z,26.1914,-97.0507,2.0,330.9057331,5.573239632,-99999.0,'11133222,11111222,99999999' 
TABS,ioos:station:wmo:42044:1,2006-10-03T16:00:00Z,26.1914,-97.0507,2.0,339.0971926,7.343296263,-99999.0,'11133222,11111222,99999999' 
TABS,ioos:station:wmo:42044:1,2006-10-03T16:30:00Z,26.1914,-97.0507,2.0,346.1781881,6.487873303,-99999.0,'11133222,11111222,99999999' 
TABS,ioos:station:wmo:42044:1,2006-10-03T17:00:00Z,26.1914,-97.0507,2.0,346.797188,7.00516952,-99999.0,'11133222,11111222,99999999' 
TABS,ioos:station:wmo:42044:1,2006-10-03T17:30:00Z,26.1914,-97.0507,2.0,340.2302665,5.97200134,-99999.0,'11133222,11111222,99999999' 
TABS,ioos:station:wmo:42044:1,2006-10-03T18:00:00Z,26.1914,-97.0507,2.0,357.4707222,4.984857069,-99999.0,'11133222,11111222,99999999' 
TABS,ioos:station:wmo:42044:1,2006-10-03T18:30:00Z,26.1914,-97.0507,2.0,1.641717849,6.632721915,-99999.0,'11133222,11111222,99999999' 
TABS,ioos:station:wmo:42044:1,2006-10-03T19:00:00Z,26.1914,-97.0507,2.0,339.5562381,6.584747527,-99999.0,'11133222,11111222,99999999' 
TABS,ioos:station:wmo:42044:1,2006-10-03T19:30:00Z,26.1914,-97.0507,2.0,334.23791,2.553840246,-99999.0,'11133222,11111222,99999999' 
TABS,ioos:station:wmo:42044:1,2006-10-03T20:00:00Z,26.1914,-97.0507,2.0,316.4122464,4.01758634,-99999.0,'11133222,11111222,99999999' 
TABS,ioos:station:wmo:42044:1,2006-10-03T20:30:00Z,26.1914,-97.0507,2.0,324.7422409,4.763884969,-99999.0,'11133222,11111222,99999999' 
TABS,ioos:station:wmo:42044:1,2006-10-03T21:00:00Z,26.1914,-97.0507,2.0,291.2588444,3.723358699,-99999.0,'11133222,11111222,99999999' 
TABS,ioos:station:wmo:42044:1,2006-10-03T21:30:00Z,26.1914,-97.0507,2.0,307.4319364,7.140343129,-99999.0,'11133222,11111222,99999999' 
TABS,ioos:station:wmo:42044:1,2006-10-03T22:00:00Z,26.1914,-97.0507,2.0,329.5951582,7.21185829,-99999.0,'11133222,11111222,99999999' 
TABS,ioos:station:wmo:42044:1,2006-10-03T22:30:00Z,26.1914,-97.0507,2.0,296.4418394,6.220755581,-99999.0,'11133222,11111222,99999999' 
TABS,ioos:station:wmo:42044:1,2006-10-03T23:00:00Z,26.1914,-97.0507,2.0,299.6559872,3.98151981,-99999.0,'11133222,11111222,99999999' 
TABS,ioos:station:wmo:42044:1,2006-10-03T23:30:00Z,26.1914,-97.0507,2.0,303.1546738,5.33922279,-99999.0,'11133222,11111222,99999999' 
TABS,ioos:station:wmo:42044:1,2006-10-04T00:00:00Z,26.1914,-97.0507,2.0,308.8592194,4.494707999,-99999.0,'11133222,11111222,99999999' 
TABS,ioos:station:wmo:42044:1,2006-10-04T00:30:00Z,26.1914,-97.0507,2.0,303.006995,6.975851203,-99999.0,'11133222,11111222,99999999' 
TABS,ioos:station:wmo:42044:1,2006-10-04T01:00:00Z,26.1914,-97.0507,2.0,306.7014325,4.752020623,-99999.0,'11133222,11111222,99999999' 
TABS,ioos:station:wmo:42044:1,2006-10-04T01:30:00Z,26.1914,-97.0507,2.0,310.3289486,5.469963437,-99999.0,'11133222,11111222,99999999' 
TABS,ioos:station:wmo:42044:1,2006-10-04T02:00:00Z,26.1914,-97.0507,2.0,302.0231842,6.958886405,-99999.0,'11133222,11111222,99999999' 
TABS,ioos:station:wmo:42044:1,2006-10-04T02:30:00Z,26.1914,-97.0507,2.0,303.6116348,6.051784861,-99999.0,'11133222,11111222,99999999' 
TABS,ioos:station:wmo:42044:1,2006-10-04T03:00:00Z,26.1914,-97.0507,2.0,297.3042343,7.630098296,-99999.0,'11133222,11111222,99999999' 
TABS,ioos:station:wmo:42044:1,2006-10-04T03:30:00Z,26.1914,-97.0507,2.0,297.6409924,4.526599165,-99999.0,'11133222,11111222,99999999' 
TABS,ioos:station:wmo:42044:1,2006-10-04T04:00:00Z,26.1914,-97.0507,2.0,293.9090248,5.403674676,-99999.0,'11133222,11111222,99999999' 
TABS,ioos:station:wmo:42044:1,2006-10-04T04:30:00Z,26.1914,-97.0507,2.0,311.7831615,5.417905499,-99999.0,'11133222,11111222,99999999' 
TABS,ioos:station:wmo:42044:1,2006-10-04T05:00:00Z,26.1914,-97.0507,2.0,316.1832435,4.795205939,-99999.0,'11133222,11111222,99999999' 
TABS,ioos:station:wmo:42044:1,2006-10-04T05:30:00Z,26.1914,-97.0507,2.0,308.7382691,3.435825956,-99999.0,'11133222,11111222,99999999' 
TABS,ioos:station:wmo:42044:1,2006-10-04T06:00:00Z,26.1914,-97.0507,2.0,281.6089613,2.633875472,-99999.0,'11133222,11111222,99999999' 
TABS,ioos:station:wmo:42044:1,2006-10-04T06:30:00Z,26.1914,-97.0507,2.0,277.0072042,3.606937759,-99999.0,'11133222,11111222,99999999' 
TABS,ioos:station:wmo:42044:1,2006-10-04T07:00:00Z,26.1914,-97.0507,2.0,281.9688686,2.218220007,-99999.0,'11133222,11111222,99999999' 
TABS,ioos:station:wmo:42044:1,2006-10-04T07:30:00Z,26.1914,-97.0507,2.0,282.6197137,3.432928779,-99999.0,'11133222,11111222,99999999' 
TABS,ioos:station:wmo:42044:1,2006-10-04T08:00:00Z,26.1914,-97.0507,2.0,309.0832374,2.537892827,-99999.0,'11133222,11111222,99999999' 
TABS,ioos:station:wmo:42044:1,2006-10-04T08:30:00Z,26.1914,-97.0507,2.0,291.4481071,2.105825254,-99999.0,'11133222,11111222,99999999' 
TABS,ioos:station:wmo:42044:1,2006-10-04T09:00:00Z,26.1914,-97.0507,2.0,278.3288727,4.901693585,-99999.0,'11133222,11111222,99999999' 
TABS,ioos:station:wmo:42044:1,2006-10-04T09:30:00Z,26.1914,-97.0507,2.0,299.1978387,1.947434209,-99999.0,'11133222,11111222,99999999' 
TABS,ioos:station:wmo:42044:1,2006-10-04T10:00:00Z,26.1914,-97.0507,2.0,263.6990806,3.189263238,-99999.0,'11133222,11111222,99999999' 
TABS,ioos:station:wmo:42044:1,2006-10-04T10:30:00Z,26.1914,-97.0507,2.0,229.9860064,4.230366414,-99999.0,'11133222,11111222,99999999' 
TABS,ioos:station:wmo:42044:1,2006-10-04T11:00:00Z,26.1914,-97.0507,2.0,237.5891144,4.347159992,-99999.0,'11133222,11111222,99999999' 
TABS,ioos:station:wmo:42044:1,2006-10-04T11:30:00Z,26.1914,-97.0507,2.0,239.9310666,1.756359872,-99999.0,'11133222,11111222,99999999' 
TABS,ioos:station:wmo:42044:1,2006-10-04T12:00:00Z,26.1914,-97.0507,2.0,290.0506109,2.916779045,-99999.0,'11133222,11111222,99999999' 
TABS,ioos:station:wmo:42044:1,2006-10-04T12:30:00Z,26.1914,-97.0507,2.0,269.1412816,2.670299609,-99999.0,'11133222,11111222,99999999' 
TABS,ioos:station:wmo:42044:1,2006-10-04T13:00:00Z,26.1914,-97.0507,2.0,280.9232001,1.161034022,-99999.0,'11133222,11111222,99999999' 
TABS,ioos:station:wmo:42044:1,2006-10-04T13:30:00Z,26.1914,-97.0507,2.0,218.9851795,3.846621895,-99999.0,'11133222,11111222,99999999' 
TABS,ioos:station:wmo:42044:1,2006-10-04T14:00:00Z,26.1914,-97.0507,2.0,260.3994831,3.417864831,-99999.0,'11133222,11111222,99999999' 
TABS,ioos:station:wmo:42044:1,2006-10-04T14:30:00Z,26.1914,-97.0507,2.0,282.9329991,4.155406117,-99999.0,'11133222,11111222,99999999' 
TABS,ioos:station:wmo:42044:1,2006-10-04T15:00:00Z,26.1914,-97.0507,2.0,297.1875495,4.530540807,-99999.0,'11133222,11111222,99999999' 
TABS,ioos:station:wmo:42044:1,2006-10-04T15:30:00Z,26.1914,-97.0507,2.0,302.717239,3.755862085,-99999.0,'11133222,11111222,99999999' 
TABS,ioos:station:wmo:42044:1,2006-10-04T16:00:00Z,26.1914,-97.0507,2.0,298.3845831,4.648892341,-99999.0,'11133222,11111222,99999999' 